Data No, UTC Date,UTC Time,Latitude,Longitude,Course(deg),Temp(degC),Sal(psu),pH
383,2020/2/19,12:58,35-35.81N,139-47.18E,202,12.514,30.5316,8.1
384,2020/2/19,12:59,35-35.65N,139-47.15E,184,12.437,30.4933,8.11
385,2020/2/19,13:00,35-35.47N,139-47.17E,168,12.408,30.3412,8.1
386,2020/2/19,13:01,35-35.30N,139-47.28E,148,12.423,30.2219,8.11
387,2020/2/19,13:02,35-35.13N,139-47.43E,139,12.475,29.855,8.11
388,2020/2/19,13:03,35-34.97N,139-47.60E,139,12.534,29.9909,8.12
389,2020/2/19,13:04,35-34.80N,139-47.79E,138,12.564,30.2756,8.11
390,2020/2/19,13:05,35-34.63N,139-47.97E,139,12.569,30.2617,8.11
391,2020/2/19,13:06,35-34.47N,139-48.18E,128,12.529,30.2907,8.11
392,2020/2/19,13:07,35-34.32N,139-48.42E,125,12.429,30.2772,8.11
393,2020/2/19,13:08,35-34.17N,139-48.69E,125,12.298,30.3054,8.11
394,2020/2/19,13:09,35-34.01N,139-48.96E,127,12.131,30.2591,8.11
395,2020/2/19,13:10,35-33.83N,139-49.24E,128,12.154,30.0633,8.12
396,2020/2/19,13:11,35-33.66N,139-49.51E,128,12.141,29.9578,8.14
397,2020/2/19,13:12,35-33.48N,139-49.79E,127,12.038,30.0606,8.15
398,2020/2/19,13:13,35-33.30N,139-50.07E,128,12.047,30.0978,8.18
399,2020/2/19,13:14,35-33.12N,139-50.36E,127,11.972,30.1825,8.18
400,2020/2/19,13:15,35-32.91N,139-50.63E,139,11.945,30.4097,8.19
401,2020/2/19,13:16,35-32.64N,139-50.76E,166,11.921,30.4657,8.18
402,2020/2/19,13:17,35-32.35N,139-50.80E,173,11.847,30.2405,8.19
403,2020/2/19,13:18,35-32.05N,139-50.84E,174,11.724,30.3687,8.19
404,2020/2/19,13:19,35-31.76N,139-50.85E,178,11.684,30.9106,8.18
405,2020/2/19,13:20,35-31.46N,139-50.86E,177,11.556,31.0853,8.2
406,2020/2/19,13:21,35-31.16N,139-50.85E,183,11.577,31.3113,8.22
407,2020/2/19,13:22,35-30.86N,139-50.83E,183,11.589,31.4068,8.24
408,2020/2/19,13:23,35-30.55N,139-50.81E,183,11.616,31.5354,8.24
409,2020/2/19,13:24,35-30.25N,139-50.77E,187,11.709,31.6897,8.24
410,2020/2/19,13:25,35-29.94N,139-50.69E,193,11.77,31.8657,8.25
411,2020/2/19,13:26,35-29.65N,139-50.60E,194,11.821,31.9545,8.24
412,2020/2/19,13:27,35-29.36N,139-50.46E,205,11.873,32.031,8.24
413,2020/2/19,13:28,35-29.13N,139-50.22E,224,11.899,32.081,8.24
414,2020/2/19,13:29,35-28.91N,139-49.95E,225,11.751,32.1238,8.24
415,2020/2/19,13:30,35-28.70N,139-49.67E,226,11.734,32.0425,8.23
416,2020/2/19,13:31,35-28.50N,139-49.40E,227,11.76,31.821,8.24
417,2020/2/19,13:32,35-28.29N,139-49.12E,227,11.758,31.8141,8.25
418,2020/2/19,13:33,35-28.09N,139-48.82E,231,11.748,31.8023,8.25
419,2020/2/19,13:34,35-27.89N,139-48.53E,230,11.764,31.767,8.26
420,2020/2/19,13:35,35-27.69N,139-48.22E,230,11.699,31.7029,8.26
421,2020/2/19,13:36,35-27.49N,139-47.92E,231,11.728,31.6106,8.27
422,2020/2/19,13:37,35-27.30N,139-47.62E,231,11.825,31.5753,8.27
423,2020/2/19,13:38,35-27.11N,139-47.32E,232,11.791,31.654,8.27
424,2020/2/19,13:39,35-26.92N,139-47.01E,232,11.772,31.7178,8.27
425,2020/2/19,13:40,35-26.72N,139-46.70E,232,11.853,31.7392,8.27
426,2020/2/19,13:41,35-26.53N,139-46.39E,232,11.891,31.8073,8.27
427,2020/2/19,13:42,35-26.34N,139-46.08E,232,11.91,31.8536,8.27
428,2020/2/19,13:43,35-26.15N,139-45.78E,232,11.954,31.8981,8.27
429,2020/2/19,13:44,35-25.96N,139-45.48E,232,11.981,31.9251,8.26
430,2020/2/19,13:45,35-25.79N,139-45.15E,239,11.983,31.9284,8.26
431,2020/2/19,13:46,35-25.61N,139-44.83E,234,11.972,31.9461,8.27
432,2020/2/19,13:47,35-25.43N,139-44.53E,233,11.98,31.9648,8.26
433,2020/2/19,13:48,35-25.24N,139-44.22E,233,12.025,31.9798,8.26
434,2020/2/19,13:49,35-25.06N,139-43.91E,232,12.044,32.0095,8.26
435,2020/2/19,13:50,35-24.87N,139-43.61E,231,12.039,32.0336,8.26
436,2020/2/19,13:51,35-24.67N,139-43.31E,229,12.042,32.0376,8.27
437,2020/2/19,13:52,35-24.42N,139-43.10E,207,12.007,32.0435,8.26
438,2020/2/19,13:53,35-24.14N,139-42.95E,205,12.049,32.0457,8.27
439,2020/2/19,13:54,35-23.87N,139-42.79E,204,12.047,32.0193,8.27
440,2020/2/19,13:55,35-23.59N,139-42.63E,205,12.068,31.9802,8.27
441,2020/2/19,13:56,35-23.31N,139-42.47E,205,12.086,31.9603,8.27
442,2020/2/19,13:57,35-23.02N,139-42.31E,204,12.118,32.0253,8.27
443,2020/2/19,13:58,35-22.73N,139-42.25E,181,12.109,32.1476,8.27
444,2020/2/19,13:59,35-22.44N,139-42.28E,174,12.133,32.1935,8.27
445,2020/2/19,14:00,35-22.14N,139-42.32E,174,12.168,32.2307,8.27
446,2020/2/19,14:01,35-21.84N,139-42.36E,174,12.186,32.268,8.27
447,2020/2/19,14:02,35-21.55N,139-42.39E,174,12.163,32.2998,8.27
448,2020/2/19,14:03,35-21.30N,139-42.42E,174,12.15,32.3219,8.27
449,2020/2/19,14:04,35-21.06N,139-42.45E,174,12.177,32.3239,8.26
450,2020/2/19,14:05,35-20.83N,139-42.47E,174,12.21,32.3325,8.26
451,2020/2/19,14:06,35-20.59N,139-42.50E,174,12.23,32.3462,8.25
452,2020/2/19,14:07,35-20.36N,139-42.53E,174,12.247,32.363,8.25
453,2020/2/19,14:08,35-20.14N,139-42.56E,174,12.262,32.38,8.24
454,2020/2/19,14:09,35-19.91N,139-42.59E,174,12.331,32.3997,8.24
455,2020/2/19,14:10,35-19.70N,139-42.62E,169,12.379,32.4273,8.24
456,2020/2/19,14:11,35-19.51N,139-42.72E,150,12.378,32.4852,8.23
457,2020/2/19,14:12,35-19.34N,139-42.87E,143,12.497,32.4897,8.23
458,2020/2/19,14:13,35-19.16N,139-43.03E,142,12.484,32.5191,8.23
459,2020/2/19,14:14,35-18.99N,139-43.18E,144,12.418,32.5723,8.23
460,2020/2/19,14:15,35-18.80N,139-43.34E,145,12.584,32.5591,8.23
461,2020/2/19,14:16,35-18.62N,139-43.49E,145,12.856,32.5743,8.22
462,2020/2/19,14:17,35-18.44N,139-43.65E,145,12.925,32.7345,8.22
463,2020/2/19,14:18,35-18.26N,139-43.80E,145,13.018,32.8504,8.21
464,2020/2/19,14:19,35-18.07N,139-43.96E,145,13.03,32.899,8.21
465,2020/2/19,14:20,35-17.89N,139-44.11E,145,13.135,32.9276,8.21
466,2020/2/19,14:21,35-17.71N,139-44.26E,144,13.199,32.9877,8.21
467,2020/2/19,14:22,35-17.53N,139-44.42E,143,13.353,33.0166,8.21
468,2020/2/19,14:23,35-17.35N,139-44.58E,144,13.451,33.1238,8.21
469,2020/2/19,14:24,35-17.17N,139-44.73E,145,13.587,33.198,8.21
470,2020/2/19,14:25,35-16.99N,139-44.88E,144,13.597,33.2493,8.21
471,2020/2/19,14:26,35-16.82N,139-45.03E,145,13.591,33.2951,8.2
472,2020/2/19,14:27,35-16.64N,139-45.19E,144,13.664,33.3062,8.19
473,2020/2/19,14:28,35-16.47N,139-45.34E,144,13.7,33.324,8.19
474,2020/2/19,14:29,35-16.29N,139-45.49E,144,13.678,33.3523,8.2
475,2020/2/19,14:30,35-16.11N,139-45.65E,145,13.68,33.3655,8.19
476,2020/2/19,14:31,35-15.93N,139-45.80E,144,13.773,33.3458,8.19
477,2020/2/19,14:32,35-15.76N,139-45.95E,144,13.712,33.3965,8.2
478,2020/2/19,14:33,35-15.58N,139-46.10E,145,13.729,33.4063,8.2
479,2020/2/19,14:34,35-15.38N,139-46.21E,165,13.674,33.396,8.19
480,2020/2/19,14:35,35-15.16N,139-46.21E,180,13.758,33.389,8.19
481,2020/2/19,14:36,35-14.95N,139-46.21E,178,13.785,33.3935,8.19
482,2020/2/19,14:37,35-14.73N,139-46.22E,177,13.939,33.4264,8.19
483,2020/2/19,14:38,35-14.51N,139-46.24E,177,13.966,33.4751,8.19
484,2020/2/19,14:39,35-14.30N,139-46.25E,177,13.998,33.5058,8.19
485,2020/2/19,14:40,35-14.08N,139-46.26E,177,14.088,33.5238,8.18
486,2020/2/19,14:41,35-13.86N,139-46.27E,176,14.116,33.5482,8.19
487,2020/2/19,14:42,35-13.64N,139-46.29E,176,14.453,33.576,8.19
488,2020/2/19,14:43,35-13.42N,139-46.31E,176,14.461,33.6603,8.19
489,2020/2/19,14:44,35-13.20N,139-46.32E,178,14.449,33.7229,8.19
490,2020/2/19,14:45,35-12.98N,139-46.31E,182,14.407,33.7246,8.19
491,2020/2/19,14:46,35-12.76N,139-46.27E,192,14.609,33.7144,8.19
492,2020/2/19,14:47,35-12.53N,139-46.19E,194,14.673,33.7496,8.19
493,2020/2/19,14:48,35-12.28N,139-46.12E,193,14.649,33.8079,8.2
494,2020/2/19,14:49,35-12.01N,139-46.04E,193,14.645,33.8172,8.19
495,2020/2/19,14:50,35-11.73N,139-45.95E,194,14.675,33.8097,8.19
496,2020/2/19,14:51,35-11.44N,139-45.85E,195,14.812,33.7973,8.2
497,2020/2/19,14:52,35-11.15N,139-45.75E,196,14.814,33.8424,8.21
498,2020/2/19,14:53,35-10.85N,139-45.64E,196,14.76,33.8732,8.2
499,2020/2/19,14:54,35-10.55N,139-45.53E,196,14.578,33.8771,8.2
500,2020/2/19,14:55,35-10.24N,139-45.41E,197,14.54,33.8408,8.2
501,2020/2/19,14:56,35-09.93N,139-45.30E,197,14.682,33.8042,8.2
502,2020/2/19,14:57,35-09.64N,139-45.19E,197,14.961,33.827,8.2
503,2020/2/19,14:58,35-09.33N,139-45.08E,193,15.248,33.906,8.21
504,2020/2/19,14:59,35-09.02N,139-45.00E,192,15.608,33.9937,8.2
505,2020/2/19,15:00,35-08.71N,139-44.92E,192,15.917,34.1072,8.2
506,2020/2/19,15:01,35-08.40N,139-44.83E,191,15.956,34.24,8.19
507,2020/2/19,15:02,35-08.08N,139-44.75E,191,16.29,34.2816,8.19
508,2020/2/19,15:03,35-07.77N,139-44.66E,193,16.354,34.4036,8.19
509,2020/2/19,15:04,35-07.46N,139-44.56E,195,16.355,34.4677,8.19
510,2020/2/19,15:05,35-07.15N,139-44.44E,198,16.355,34.4822,8.19
511,2020/2/19,15:06,35-06.84N,139-44.30E,199,16.327,34.481,8.19
512,2020/2/19,15:07,35-06.54N,139-44.17E,200,16.295,34.4739,8.19
513,2020/2/19,15:08,35-06.23N,139-44.03E,199,16.333,34.4616,8.19
514,2020/2/19,15:09,35-05.93N,139-43.91E,195,16.426,34.4646,8.19
515,2020/2/19,15:10,35-05.62N,139-43.81E,194,16.588,34.4895,8.19
516,2020/2/19,15:11,35-05.30N,139-43.72E,194,16.628,34.5477,8.18
517,2020/2/19,15:12,35-04.98N,139-43.62E,193,16.623,34.5812,8.19
518,2020/2/19,15:13,35-04.68N,139-43.53E,193,16.595,34.5894,8.18
519,2020/2/19,15:14,35-04.37N,139-43.43E,193,16.604,34.5871,8.18
520,2020/2/19,15:15,35-04.05N,139-43.35E,191,16.601,34.5813,8.18
521,2020/2/19,15:16,35-03.74N,139-43.28E,190,16.606,34.5865,8.18
522,2020/2/19,15:17,35-03.43N,139-43.20E,191,16.605,34.5906,8.18
523,2020/2/19,15:18,35-03.11N,139-43.13E,190,16.599,34.5948,8.18
524,2020/2/19,15:19,35-02.79N,139-43.05E,191,16.569,34.5997,8.18
525,2020/2/19,15:20,35-02.48N,139-42.97E,190,16.539,34.5974,8.18
526,2020/2/19,15:21,35-02.17N,139-42.91E,188,16.556,34.5937,8.18
527,2020/2/19,15:22,35-01.85N,139-42.85E,189,16.622,34.5887,8.18
528,2020/2/19,15:23,35-01.52N,139-42.79E,187,16.663,34.5806,8.18
529,2020/2/19,15:24,35-01.19N,139-42.75E,183,16.786,34.5807,8.18
530,2020/2/19,15:25,35-00.86N,139-42.74E,180,17.011,34.587,8.18
531,2020/2/19,15:26,35-00.53N,139-42.74E,180,17.169,34.5983,8.18
532,2020/2/19,15:27,35-00.20N,139-42.74E,179,17.328,34.6137,8.18
533,2020/2/19,15:28,34-59.86N,139-42.74E,178,17.389,34.6242,8.18
534,2020/2/19,15:29,34-59.52N,139-42.77E,174,17.412,34.6309,8.19
535,2020/2/19,15:30,34-59.18N,139-42.82E,173,17.449,34.6325,8.19
536,2020/2/19,15:31,34-58.83N,139-42.87E,172,17.494,34.6344,8.19
537,2020/2/19,15:32,34-58.49N,139-42.93E,171,17.509,34.6369,8.19
538,2020/2/19,15:33,34-58.15N,139-42.99E,171,17.49,34.6392,8.19
539,2020/2/19,15:34,34-57.81N,139-43.05E,169,17.471,34.638,8.19
540,2020/2/19,15:35,34-57.47N,139-43.14E,166,17.453,34.6355,8.19
541,2020/2/19,15:36,34-57.14N,139-43.28E,158,17.418,34.6334,8.19
542,2020/2/19,15:37,34-56.81N,139-43.46E,153,17.406,34.6309,8.19
543,2020/2/19,15:38,34-56.50N,139-43.66E,150,17.399,34.6294,8.19
544,2020/2/19,15:39,34-56.21N,139-43.88E,147,17.398,34.6275,8.19
545,2020/2/19,15:40,34-55.91N,139-44.12E,146,17.375,34.6282,8.18
546,2020/2/19,15:41,34-55.62N,139-44.36E,146,17.388,34.629,8.19
547,2020/2/19,15:42,34-55.32N,139-44.60E,145,17.388,34.629,8.19
548,2020/2/19,15:43,34-55.02N,139-44.84E,146,17.357,34.6297,8.19
549,2020/2/19,15:44,34-54.72N,139-45.08E,146,17.317,34.6311,8.19
550,2020/2/19,15:45,34-54.43N,139-45.32E,144,17.297,34.6295,8.19
551,2020/2/19,15:46,34-54.14N,139-45.59E,140,17.303,34.6276,8.19
552,2020/2/19,15:47,34-53.87N,139-45.87E,138,17.225,34.6271,8.19
553,2020/2/19,15:48,34-53.61N,139-46.16E,137,17.142,34.6271,8.18
554,2020/2/19,15:49,34-53.32N,139-46.48E,137,17.046,34.6218,8.19
555,2020/2/19,15:50,34-53.04N,139-46.78E,139,16.962,34.6146,8.18
556,2020/2/19,15:51,34-52.76N,139-47.06E,140,16.906,34.6093,8.18
557,2020/2/19,15:52,34-52.52N,139-47.29E,140,16.837,34.6048,8.18
558,2020/2/19,15:53,34-52.25N,139-47.57E,140,16.678,34.6015,8.18
559,2020/2/19,15:54,34-51.97N,139-47.85E,140,16.629,34.5976,8.18
560,2020/2/19,15:55,34-51.67N,139-48.18E,134,16.542,34.59,8.18
561,2020/2/19,15:56,34-51.44N,139-48.50E,130,16.52,34.5817,8.17
562,2020/2/19,15:57,34-51.23N,139-48.81E,129,16.491,34.5731,8.17
563,2020/2/19,15:58,34-51.01N,139-49.13E,129,16.394,34.5707,8.17
564,2020/2/19,15:59,34-50.79N,139-49.46E,126,16.158,34.569,8.17
565,2020/2/19,16:00,34-50.60N,139-49.80E,123,16.137,34.565,8.16
566,2020/2/19,16:01,34-50.44N,139-50.15E,119,15.976,34.5717,8.16
567,2020/2/19,16:02,34-50.28N,139-50.49E,120,16.128,34.5726,8.16
568,2020/2/19,16:03,34-50.12N,139-50.84E,117,16.137,34.5667,8.16
569,2020/2/19,16:04,34-49.99N,139-51.21E,112,16.105,34.5688,8.15
570,2020/2/19,16:05,34-49.89N,139-51.52E,110,16.125,34.5685,8.15
571,2020/2/19,16:06,34-49.79N,139-51.88E,108,16.161,34.5699,8.16
572,2020/2/19,16:07,34-49.72N,139-52.27E,98,16.189,34.5721,8.15
573,2020/2/19,16:08,34-49.69N,139-52.66E,94,16.226,34.5733,8.15
574,2020/2/19,16:09,34-49.69N,139-53.07E,87,16.266,34.5726,8.15
575,2020/2/19,16:10,34-49.74N,139-53.46E,80,16.4,34.575,8.15
576,2020/2/19,16:11,34-49.82N,139-53.84E,71,16.654,34.5762,8.15
577,2020/2/19,16:12,34-49.95N,139-54.21E,65,16.728,34.5858,8.15
578,2020/2/19,16:13,34-50.10N,139-54.58E,62,16.802,34.5961,8.16
579,2020/2/19,16:14,34-50.27N,139-54.93E,60,16.838,34.5993,8.17
580,2020/2/19,16:15,34-50.44N,139-55.29E,60,16.856,34.6024,8.17
581,2020/2/19,16:16,34-50.61N,139-55.66E,60,16.875,34.6048,8.17
582,2020/2/19,16:17,34-50.78N,139-56.01E,60,16.87,34.6059,8.17
583,2020/2/19,16:18,34-50.94N,139-56.36E,60,16.873,34.6068,8.18
584,2020/2/19,16:19,34-51.11N,139-56.72E,60,16.872,34.6079,8.17
585,2020/2/19,16:20,34-51.28N,139-57.07E,60,16.841,34.6084,8.17
586,2020/2/19,16:21,34-51.45N,139-57.43E,60,16.83,34.6074,8.17
587,2020/2/19,16:22,34-51.61N,139-57.78E,60,16.843,34.6056,8.17
588,2020/2/19,16:23,34-51.78N,139-58.13E,60,16.87,34.6058,8.18
589,2020/2/19,16:24,34-51.94N,139-58.49E,61,16.885,34.6072,8.17
590,2020/2/19,16:25,34-52.10N,139-58.85E,61,16.892,34.6091,8.17
591,2020/2/19,16:26,34-52.26N,139-59.20E,61,16.899,34.6099,8.17
592,2020/2/19,16:27,34-52.43N,139-59.56E,61,16.901,34.6093,8.18
593,2020/2/19,16:28,34-52.59N,139-59.91E,61,16.905,34.6101,8.17
594,2020/2/19,16:29,34-52.75N,140-00.28E,61,16.912,34.6106,8.17
595,2020/2/19,16:30,34-52.91N,140-00.63E,61,16.919,34.611,8.17
596,2020/2/19,16:31,34-53.07N,140-00.99E,61,16.925,34.6111,8.18
597,2020/2/19,16:32,34-53.23N,140-01.36E,61,16.943,34.6121,8.17
598,2020/2/19,16:33,34-53.40N,140-01.72E,61,16.943,34.6125,8.18
599,2020/2/19,16:34,34-53.56N,140-02.07E,61,16.935,34.6126,8.18
600,2020/2/19,16:35,34-53.72N,140-02.43E,61,16.934,34.6138,8.18
601,2020/2/19,16:36,34-53.88N,140-02.80E,61,16.938,34.6142,8.18
602,2020/2/19,16:37,34-54.05N,140-03.16E,61,16.942,34.614,8.18
603,2020/2/19,16:38,34-54.22N,140-03.53E,61,16.956,34.6145,8.18
604,2020/2/19,16:39,34-54.38N,140-03.88E,61,16.957,34.6157,8.17
605,2020/2/19,16:40,34-54.54N,140-04.24E,61,16.974,34.6163,8.18
606,2020/2/19,16:41,34-54.70N,140-04.60E,61,16.969,34.6169,8.17
607,2020/2/19,16:42,34-54.87N,140-04.96E,61,16.956,34.6183,8.18
608,2020/2/19,16:43,34-55.03N,140-05.33E,61,16.935,34.6182,8.18
609,2020/2/19,16:44,34-55.20N,140-05.69E,61,16.907,34.6183,8.18
610,2020/2/19,16:45,34-55.36N,140-06.05E,61,16.855,34.6183,8.18
611,2020/2/19,16:46,34-55.52N,140-06.41E,61,16.624,34.617,8.18
612,2020/2/19,16:47,34-55.69N,140-06.77E,60,16.155,34.6141,8.17
613,2020/2/19,16:48,34-55.85N,140-07.11E,60,15.848,34.6013,8.17
614,2020/2/19,16:49,34-56.01N,140-07.44E,60,15.948,34.5825,8.16
615,2020/2/19,16:50,34-56.16N,140-07.78E,61,16.011,34.575,8.15
616,2020/2/19,16:51,34-56.32N,140-08.12E,61,16.045,34.5728,8.15
617,2020/2/19,16:52,34-56.48N,140-08.47E,61,16.04,34.5726,8.15
618,2020/2/19,16:53,34-56.62N,140-08.80E,61,15.989,34.5737,8.15
619,2020/2/19,16:54,34-56.78N,140-09.14E,60,15.953,34.5715,8.15
620,2020/2/19,16:55,34-56.93N,140-09.48E,60,15.894,34.5684,8.15
621,2020/2/19,16:56,34-57.09N,140-09.82E,61,15.896,34.5659,8.15
622,2020/2/19,16:57,34-57.24N,140-10.16E,61,15.941,34.5622,8.15
623,2020/2/19,16:58,34-57.39N,140-10.49E,61,15.993,34.562,8.15
624,2020/2/19,16:59,34-57.54N,140-10.83E,62,16.039,34.5624,8.15
625,2020/2/19,17:00,34-57.69N,140-11.18E,62,16.112,34.5663,8.15
626,2020/2/19,17:01,34-57.84N,140-11.53E,62,16.196,34.5688,8.15
627,2020/2/19,17:02,34-57.99N,140-11.88E,62,16.233,34.5729,8.15
628,2020/2/19,17:03,34-58.14N,140-12.22E,61,16.199,34.5773,8.15
629,2020/2/19,17:04,34-58.29N,140-12.55E,60,15.482,34.5815,8.15
630,2020/2/19,17:05,34-58.45N,140-12.89E,61,15.221,34.5717,8.16
631,2020/2/19,17:06,34-58.60N,140-13.23E,60,15.154,34.5602,8.15
632,2020/2/19,17:07,34-58.76N,140-13.56E,60,15.231,34.5511,8.15
633,2020/2/19,17:08,34-58.91N,140-13.88E,60,15.329,34.5499,8.14
634,2020/2/19,17:09,34-59.06N,140-14.20E,60,15.404,34.551,8.13
635,2020/2/19,17:10,34-59.21N,140-14.52E,59,15.441,34.5522,8.13
636,2020/2/19,17:11,34-59.37N,140-14.84E,59,15.456,34.5515,8.13
637,2020/2/19,17:12,34-59.53N,140-15.17E,59,15.471,34.5518,8.13
638,2020/2/19,17:13,34-59.68N,140-15.49E,59,15.483,34.5515,8.13
639,2020/2/19,17:14,34-59.84N,140-15.81E,59,15.502,34.5505,8.14
640,2020/2/19,17:15,35-00.00N,140-16.13E,58,15.529,34.5516,8.13
641,2020/2/19,17:16,35-00.16N,140-16.45E,59,15.6,34.5536,8.14
642,2020/2/19,17:17,35-00.32N,140-16.78E,58,15.66,34.5545,8.14
643,2020/2/19,17:18,35-00.48N,140-17.10E,59,15.671,34.5554,8.13
644,2020/2/19,17:19,35-00.63N,140-17.42E,59,15.68,34.5565,8.13
645,2020/2/19,17:20,35-00.79N,140-17.75E,59,15.67,34.5567,8.13
646,2020/2/19,17:21,35-00.95N,140-18.07E,59,15.666,34.5569,8.14
647,2020/2/19,17:22,35-01.12N,140-18.41E,59,15.712,34.5572,8.14
648,2020/2/19,17:23,35-01.27N,140-18.73E,59,15.741,34.561,8.14
649,2020/2/19,17:24,35-01.43N,140-19.06E,59,15.773,34.562,8.14
650,2020/2/19,17:25,35-01.60N,140-19.39E,59,15.768,34.5646,8.15
651,2020/2/19,17:26,35-01.76N,140-19.72E,59,15.726,34.5689,8.15
652,2020/2/19,17:27,35-01.92N,140-20.05E,59,15.666,34.5709,8.15
653,2020/2/19,17:28,35-02.08N,140-20.38E,59,15.564,34.5721,8.15
654,2020/2/19,17:29,35-02.24N,140-20.71E,59,15.523,34.5678,8.15
655,2020/2/19,17:30,35-02.40N,140-21.04E,59,15.469,34.5617,8.15
656,2020/2/19,17:31,35-02.56N,140-21.37E,59,15.472,34.5581,8.14
657,2020/2/19,17:32,35-02.72N,140-21.70E,59,15.5,34.5574,8.15
658,2020/2/19,17:33,35-02.88N,140-22.02E,59,15.523,34.5598,8.15
659,2020/2/19,17:34,35-03.04N,140-22.35E,58,15.522,34.5616,8.14
660,2020/2/19,17:35,35-03.20N,140-22.68E,59,15.55,34.5628,8.14
661,2020/2/19,17:36,35-03.37N,140-23.01E,59,15.571,34.5638,8.15
662,2020/2/19,17:37,35-03.53N,140-23.34E,58,15.573,34.5642,8.14
663,2020/2/19,17:38,35-03.69N,140-23.67E,59,15.597,34.5653,8.15
664,2020/2/19,17:39,35-03.85N,140-23.99E,59,15.63,34.567,8.15
665,2020/2/19,17:40,35-04.01N,140-24.32E,58,15.641,34.5688,8.15
666,2020/2/19,17:41,35-04.18N,140-24.64E,58,15.663,34.5704,8.14
667,2020/2/19,17:42,35-04.34N,140-24.98E,58,15.658,34.5724,8.15
668,2020/2/19,17:43,35-04.50N,140-25.30E,58,15.639,34.5731,8.14
669,2020/2/19,17:44,35-04.67N,140-25.62E,56,15.581,34.5729,8.15
670,2020/2/19,17:45,35-04.85N,140-25.92E,52,15.576,34.5714,8.15
671,2020/2/19,17:46,35-05.05N,140-26.22E,51,15.588,34.5692,8.14
672,2020/2/19,17:47,35-05.25N,140-26.52E,51,15.579,34.5684,8.15
673,2020/2/19,17:48,35-05.44N,140-26.81E,51,15.534,34.5686,8.15
674,2020/2/19,17:49,35-05.63N,140-27.11E,51,15.561,34.5672,8.14
675,2020/2/19,17:50,35-05.83N,140-27.41E,51,15.57,34.5652,8.14
676,2020/2/19,17:51,35-06.03N,140-27.71E,50,15.586,34.5659,8.14
677,2020/2/19,17:52,35-06.21N,140-28.01E,55,15.607,34.5662,8.14
678,2020/2/19,17:53,35-06.38N,140-28.33E,58,15.631,34.5675,8.13
679,2020/2/19,17:54,35-06.54N,140-28.66E,58,15.647,34.5693,8.14
680,2020/2/19,17:55,35-06.70N,140-28.99E,59,15.663,34.5698,8.15
681,2020/2/19,17:56,35-06.87N,140-29.32E,59,15.688,34.5709,8.14
682,2020/2/19,17:57,35-07.03N,140-29.66E,59,15.715,34.5716,8.14
683,2020/2/19,17:58,35-07.19N,140-29.99E,58,15.762,34.5721,8.15
684,2020/2/19,17:59,35-07.36N,140-30.33E,58,15.8,34.5743,8.15
685,2020/2/19,18:00,35-07.52N,140-30.66E,59,15.818,34.5751,8.15
686,2020/2/19,18:01,35-07.69N,140-31.01E,59,15.835,34.576,8.15
687,2020/2/19,18:02,35-07.86N,140-31.34E,59,15.854,34.5764,8.15
688,2020/2/19,18:03,35-08.02N,140-31.68E,59,15.876,34.5776,8.15
689,2020/2/19,18:04,35-08.19N,140-32.02E,59,15.891,34.5785,8.15
690,2020/2/19,18:05,35-08.36N,140-32.37E,59,15.896,34.5792,8.15
691,2020/2/19,18:06,35-08.53N,140-32.72E,59,15.915,34.5795,8.15
692,2020/2/19,18:07,35-08.69N,140-33.05E,59,15.943,34.579,8.15
693,2020/2/19,18:08,35-08.87N,140-33.39E,55,15.956,34.5787,8.15
694,2020/2/19,18:09,35-09.07N,140-33.72E,53,15.953,34.5791,8.15
695,2020/2/19,18:10,35-09.27N,140-34.04E,53,15.927,34.577,8.14
696,2020/2/19,18:11,35-09.48N,140-34.36E,49,15.92,34.5749,8.15
697,2020/2/19,18:12,35-09.70N,140-34.65E,45,15.897,34.5732,8.15
698,2020/2/19,18:13,35-09.94N,140-34.93E,44,15.878,34.5709,8.15
699,2020/2/19,18:14,35-10.17N,140-35.21E,44,15.85,34.568,8.15
700,2020/2/19,18:15,35-10.41N,140-35.49E,44,15.823,34.5667,8.15
701,2020/2/19,18:16,35-10.65N,140-35.77E,43,15.809,34.566,8.15
702,2020/2/19,18:17,35-10.89N,140-36.05E,43,15.792,34.5629,8.15
703,2020/2/19,18:18,35-11.13N,140-36.32E,43,15.784,34.562,8.15
704,2020/2/19,18:19,35-11.38N,140-36.59E,40,15.771,34.5641,8.15
705,2020/2/19,18:20,35-11.63N,140-36.85E,40,15.736,34.5656,8.15
706,2020/2/19,18:21,35-11.90N,140-37.11E,39,15.687,34.5647,8.15
707,2020/2/19,18:22,35-12.15N,140-37.37E,39,15.674,34.5641,8.14
708,2020/2/19,18:23,35-12.41N,140-37.62E,38,15.726,34.5631,8.14
709,2020/2/19,18:24,35-12.67N,140-37.87E,39,15.79,34.5611,8.14
710,2020/2/19,18:25,35-12.92N,140-38.13E,39,15.835,34.56,8.13
711,2020/2/19,18:26,35-13.19N,140-38.37E,35,15.905,34.5613,8.15
712,2020/2/19,18:27,35-13.47N,140-38.60E,33,15.99,34.5618,8.15
713,2020/2/19,18:28,35-13.74N,140-38.82E,33,16.042,34.565,8.15
714,2020/2/19,18:29,35-14.02N,140-39.04E,33,16.063,34.5689,8.15
715,2020/2/19,18:30,35-14.29N,140-39.25E,31,16.105,34.5662,8.15
716,2020/2/19,18:31,35-14.58N,140-39.46E,30,15.963,34.5678,8.15
717,2020/2/19,18:32,35-14.86N,140-39.66E,30,15.893,34.5589,8.15
718,2020/2/19,18:33,35-15.14N,140-39.86E,30,15.925,34.5545,8.15
719,2020/2/19,18:34,35-15.42N,140-40.07E,32,15.991,34.5541,8.15
720,2020/2/19,18:35,35-15.69N,140-40.29E,34,16.066,34.5544,8.15
721,2020/2/19,18:36,35-15.97N,140-40.51E,32,16.12,34.5601,8.15
722,2020/2/19,18:37,35-16.25N,140-40.73E,32,16.201,34.5665,8.15
723,2020/2/19,18:38,35-16.53N,140-40.94E,32,16.285,34.5698,8.15
724,2020/2/19,18:39,35-16.80N,140-41.15E,32,16.32,34.5754,8.15
725,2020/2/19,18:40,35-17.08N,140-41.36E,32,16.339,34.5803,8.15
726,2020/2/19,18:41,35-17.36N,140-41.58E,32,16.348,34.584,8.15
727,2020/2/19,18:42,35-17.64N,140-41.80E,32,16.359,34.5877,8.15
728,2020/2/19,18:43,35-17.92N,140-42.00E,30,16.376,34.5903,8.15
729,2020/2/19,18:44,35-18.20N,140-42.20E,30,16.382,34.5917,8.15
730,2020/2/19,18:45,35-18.48N,140-42.40E,29,16.379,34.5936,8.15
731,2020/2/19,18:46,35-18.77N,140-42.60E,30,16.287,34.594,8.15
732,2020/2/19,18:47,35-19.06N,140-42.81E,30,16.24,34.5925,8.16
733,2020/2/19,18:48,35-19.34N,140-43.02E,30,16.231,34.5884,8.15
734,2020/2/19,18:49,35-19.62N,140-43.22E,30,16.225,34.5863,8.15
735,2020/2/19,18:50,35-19.91N,140-43.42E,30,16.234,34.5856,8.15
736,2020/2/19,18:51,35-20.20N,140-43.62E,30,16.23,34.585,8.15
737,2020/2/19,18:52,35-20.49N,140-43.83E,30,16.218,34.5857,8.16
738,2020/2/19,18:53,35-20.78N,140-44.04E,30,16.161,34.5851,8.15
739,2020/2/19,18:54,35-21.07N,140-44.24E,30,16.104,34.5849,8.15
740,2020/2/19,18:55,35-21.35N,140-44.44E,29,16.134,34.5858,8.16
741,2020/2/19,18:56,35-21.64N,140-44.64E,29,16.164,34.5915,8.15
742,2020/2/19,18:57,35-21.92N,140-44.84E,30,16.181,34.5919,8.15
743,2020/2/19,18:58,35-22.21N,140-45.05E,30,16.126,34.5889,8.15
744,2020/2/19,18:59,35-22.49N,140-45.25E,30,16.032,34.5856,8.15
745,2020/2/19,19:00,35-22.77N,140-45.45E,30,15.949,34.5811,8.15
746,2020/2/19,19:01,35-23.06N,140-45.66E,30,15.899,34.5765,8.15
747,2020/2/19,19:02,35-23.34N,140-45.86E,30,15.857,34.5733,8.15
748,2020/2/19,19:03,35-23.63N,140-46.06E,29,15.782,34.5722,8.14